Location: Chmeli�t?
(49.8978°N, 15.0526°E)
Time: 00:15:02
(UTC+00:00)

Cosmos 2074 Rocket - Pass Details

Date: 08 October 2020
Orbit: 967 x 986 km, 82.9° (Epoch: 24 October)

Event Time Altitude Azimuth Distance (km) Brightness Sun altitude
Rises 20:22:13 0° 354° (N) 3,691 7.6 -36.9°
Reaches altitude 10° 20:24:55 10° 1° (N) 2,736 6.7 -37.2°
Enters shadow 20:27:21 23° 14° (NNE) 1,953 5.7 -37.5°
